Time,TemperatureF,DewpointF,PressureIn,WindDirection,WindDirectionDegrees,WindSpeedMPH,WindSpeedGustMPH,Humidity,HourlyPrecipIn,Conditions,Clouds,dailyrainin,SoftwareType,DateUTC
2013-03-07 00:09:00,54.9,23.2,30.15,SW,234,3.0,6.3,29,0.00,,,-99.99,FreeWX 2.05,2013-03-07 05:09:00,
2013-03-07 00:19:00,54.5,22.8,30.15,WSW,237,2.0,4.5,29,0.00,,,-99.99,FreeWX 2.05,2013-03-07 05:19:00,
2013-03-07 00:29:00,54.3,23.5,30.15,SW,225,2.0,5.4,30,0.00,,,-99.99,FreeWX 2.05,2013-03-07 05:29:00,
2013-03-07 00:39:00,54.0,23.2,30.15,North,-999,0.0,3.6,30,0.00,,,-99.99,FreeWX 2.05,2013-03-07 05:39:00,
2013-03-07 00:49:00,53.8,23.0,30.15,North,-999,0.0,4.5,30,0.00,,,-99.99,FreeWX 2.05,2013-03-07 05:49:00,
2013-03-07 00:59:00,53.2,22.6,30.15,SW,224,2.0,4.0,30,0.00,,,-99.99,FreeWX 2.05,2013-03-07 05:59:00,
2013-03-07 01:09:00,53.1,22.5,30.15,SW,214,1.0,3.6,30,0.00,,,-99.99,FreeWX 2.05,2013-03-07 06:09:00,
2013-03-07 01:19:00,52.9,21.6,30.18,SW,224,1.0,4.5,29,0.00,,,-99.99,FreeWX 2.05,2013-03-07 06:19:00,
2013-03-07 01:29:00,52.7,22.1,30.18,SSW,204,1.0,4.9,30,0.00,,,-99.99,FreeWX 2.05,2013-03-07 06:29:00,
2013-03-07 01:39:00,52.3,21.0,30.18,North,-999,0.0,3.6,29,0.00,,,-99.99,FreeWX 2.05,2013-03-07 06:39:00,
2013-03-07 01:49:00,52.0,20.7,30.18,North,-999,0.0,4.0,29,0.00,,,-99.99,FreeWX 2.05,2013-03-07 06:49:00,
2013-03-07 01:59:00,51.8,21.4,30.18,North,-999,0.0,4.0,30,0.00,,,-99.99,FreeWX 2.05,2013-03-07 06:59:00,
2013-03-07 02:09:00,51.6,21.2,30.18,North,-999,0.0,3.6,30,0.00,,,-99.99,FreeWX 2.05,2013-03-07 07:09:00,
2013-03-07 02:19:00,51.4,21.0,30.15,North,-999,0.0,0.0,30,0.00,,,-99.99,FreeWX 2.05,2013-03-07 07:19:00,
2013-03-07 02:29:00,51.1,20.7,30.15,North,-999,0.0,0.0,30,0.00,,,-99.99,FreeWX 2.05,2013-03-07 07:29:00,
2013-03-07 02:39:00,50.5,20.3,30.15,North,-999,0.0,0.0,30,0.00,,,-99.99,FreeWX 2.05,2013-03-07 07:39:00,
2013-03-07 02:49:00,50.2,19.9,30.15,North,-999,0.0,0.0,30,0.00,,,-99.99,FreeWX 2.05,2013-03-07 07:49:00,
2013-03-07 02:59:00,49.6,20.3,30.15,North,-999,0.0,0.0,31,0.00,,,-99.99,FreeWX 2.05,2013-03-07 07:59:00,
2013-03-07 03:09:00,49.1,19.8,30.15,North,-999,0.0,0.0,31,0.00,,,-99.99,FreeWX 2.05,2013-03-07 08:09:00,
2013-03-07 03:19:00,48.7,20.3,30.15,North,-999,0.0,0.0,32,0.00,,,-99.99,FreeWX 2.05,2013-03-07 08:19:00,
2013-03-07 03:29:00,48.2,20.5,30.15,North,-999,0.0,0.0,33,0.00,,,-99.99,FreeWX 2.05,2013-03-07 08:29:00,
2013-03-07 03:39:00,48.0,20.3,30.15,North,-999,0.0,0.0,33,0.00,,,-99.99,FreeWX 2.05,2013-03-07 08:39:00,
2013-03-07 03:49:00,47.7,19.9,30.15,North,-999,0.0,0.0,33,0.00,,,-99.99,FreeWX 2.05,2013-03-07 08:49:00,
2013-03-07 03:59:00,47.3,21.0,30.15,North,-999,0.0,0.0,35,0.00,,,-99.99,FreeWX 2.05,2013-03-07 08:59:00,
2013-03-07 04:09:00,47.3,21.0,30.15,North,-999,0.0,0.0,35,0.00,,,-99.99,FreeWX 2.05,2013-03-07 09:09:00,
2013-03-07 04:19:00,47.3,22.3,30.15,North,-999,0.0,0.0,37,0.00,,,-99.99,FreeWX 2.05,2013-03-07 09:19:00,
2013-03-07 04:29:00,47.3,22.3,30.18,North,-999,0.0,0.0,37,0.00,,,-99.99,FreeWX 2.05,2013-03-07 09:29:00,
2013-03-07 04:39:00,47.3,22.3,30.18,North,-999,0.0,3.6,37,0.00,,,-99.99,FreeWX 2.05,2013-03-07 09:39:00,
2013-03-07 04:49:00,47.5,22.5,30.15,North,-999,0.0,4.0,37,0.00,,,-99.99,FreeWX 2.05,2013-03-07 09:49:00,
2013-03-07 04:59:00,47.3,21.7,30.18,North,-999,0.0,3.1,36,0.00,,,-99.99,FreeWX 2.05,2013-03-07 09:59:00,
2013-03-07 05:09:00,47.3,21.7,30.18,North,-999,0.0,3.6,36,0.00,,,-99.99,FreeWX 2.05,2013-03-07 10:09:00,
2013-03-07 05:19:00,47.3,21.0,30.18,North,-999,0.0,4.5,35,0.00,,,-99.99,FreeWX 2.05,2013-03-07 10:19:00,
2013-03-07 05:29:00,47.1,20.3,30.18,North,-999,0.0,2.7,34,0.00,,,-99.99,FreeWX 2.05,2013-03-07 10:29:00,
2013-03-07 05:49:00,46.6,19.0,30.18,North,-999,0.0,3.6,33,0.00,,,-99.99,FreeWX 2.05,2013-03-07 10:49:00,
2013-03-07 05:59:00,46.8,19.2,30.18,North,-999,0.0,4.0,33,0.00,,,-99.99,FreeWX 2.05,2013-03-07 10:59:00,
2013-03-07 06:09:00,46.4,18.1,30.18,North,-999,0.0,4.0,32,0.00,,,-99.99,FreeWX 2.05,2013-03-07 11:09:00,
2013-03-07 06:19:00,46.2,18.0,30.18,North,-999,0.0,3.6,32,0.00,,,-99.99,FreeWX 2.05,2013-03-07 11:19:00,
2013-03-07 06:29:00,46.4,17.4,30.18,SSW,212,1.0,3.1,31,0.00,,,-99.99,FreeWX 2.05,2013-03-07 11:29:00,
2013-03-07 06:39:00,46.2,17.2,30.18,SW,227,1.0,4.0,31,0.00,,,-99.99,FreeWX 2.05,2013-03-07 11:39:00,
2013-03-07 06:49:00,46.0,17.1,30.18,SW,227,2.0,4.0,31,0.00,,,-99.99,FreeWX 2.05,2013-03-07 11:49:00,
2013-03-07 06:59:00,46.0,17.1,30.21,SW,232,2.0,5.4,31,0.00,,,-99.99,FreeWX 2.05,2013-03-07 11:59:00,
2013-03-07 07:09:00,46.0,17.1,30.21,North,-999,0.0,4.9,31,0.00,,,-99.99,FreeWX 2.05,2013-03-07 12:09:00,
2013-03-07 07:19:00,46.0,17.1,30.21,North,-999,0.0,3.1,31,0.00,,,-99.99,FreeWX 2.05,2013-03-07 12:19:00,
2013-03-07 07:29:00,46.4,17.4,30.21,SSW,213,1.0,5.8,31,0.00,,,-99.99,FreeWX 2.05,2013-03-07 12:29:00,
2013-03-07 07:39:00,46.6,17.6,30.21,SW,233,1.0,4.5,31,0.00,,,-99.99,FreeWX 2.05,2013-03-07 12:39:00,
2013-03-07 07:49:00,46.9,18.0,30.21,SW,232,2.0,4.0,31,0.00,,,-99.99,FreeWX 2.05,2013-03-07 12:49:00,
2013-03-07 07:59:00,47.1,17.2,30.21,SW,230,2.0,4.9,30,0.00,,,-99.99,FreeWX 2.05,2013-03-07 12:59:00,
2013-03-07 08:09:00,47.5,17.6,30.21,WSW,243,2.0,5.4,30,0.00,,,-99.99,FreeWX 2.05,2013-03-07 13:09:00,
2013-03-07 08:19:00,48.0,17.2,30.21,SW,229,2.0,5.4,29,0.00,,,-99.99,FreeWX 2.05,2013-03-07 13:19:00,
2013-03-07 08:30:00,48.0,17.2,30.21,WSW,237,3.0,5.4,29,0.00,,,-99.99,FreeWX 2.05,2013-03-07 13:30:00,
2013-03-07 08:50:00,49.1,17.4,30.21,SW,232,2.0,4.9,28,0.00,,,-99.99,FreeWX 2.05,2013-03-07 13:50:00,
2013-03-07 09:00:00,49.6,18.0,30.21,WSW,239,2.0,4.9,28,0.00,,,-99.99,FreeWX 2.05,2013-03-07 14:00:00,
2013-03-07 09:10:00,50.0,18.1,30.21,WSW,237,3.0,5.8,28,0.00,,,-99.99,FreeWX 2.05,2013-03-07 14:10:00,
2013-03-07 09:20:00,50.9,18.1,30.21,WSW,243,2.0,5.8,27,0.00,,,-99.99,FreeWX 2.05,2013-03-07 14:20:00,
2013-03-07 09:30:00,51.4,18.5,30.21,SW,235,3.0,4.9,27,0.00,,,-99.99,FreeWX 2.05,2013-03-07 14:30:00,
2013-03-07 09:40:00,52.2,19.2,30.21,SW,229,2.0,6.3,27,0.00,,,-99.99,FreeWX 2.05,2013-03-07 14:40:00,
2013-03-07 09:50:00,52.5,19.6,30.21,SW,230,2.0,4.9,27,0.00,,,-99.99,FreeWX 2.05,2013-03-07 14:50:00,
2013-03-07 10:00:00,53.2,19.2,30.21,WSW,242,2.0,4.5,26,0.00,,,-99.99,FreeWX 2.05,2013-03-07 15:00:00,
2013-03-07 10:10:00,54.0,19.9,30.21,SW,215,1.0,4.5,26,0.00,,,-99.99,FreeWX 2.05,2013-03-07 15:10:00,
2013-03-07 10:20:00,54.5,20.3,30.21,WSW,249,1.0,4.5,26,0.00,,,-99.99,FreeWX 2.05,2013-03-07 15:20:00,
2013-03-07 10:30:00,54.9,20.7,30.21,SSW,212,1.0,5.8,26,0.00,,,-99.99,FreeWX 2.05,2013-03-07 15:30:00,
2013-03-07 10:40:00,55.2,19.9,30.21,SW,221,2.0,5.4,25,0.00,,,-99.99,FreeWX 2.05,2013-03-07 15:40:00,
2013-03-07 10:50:00,55.8,20.5,30.21,SW,233,1.0,4.9,25,0.00,,,-99.99,FreeWX 2.05,2013-03-07 15:50:00,
2013-03-07 11:00:00,56.3,21.0,30.21,SW,223,2.0,5.8,25,0.00,,,-99.99,FreeWX 2.05,2013-03-07 16:00:00,
2013-03-07 11:10:00,56.8,21.4,30.21,SW,214,1.0,4.5,25,0.00,,,-99.99,FreeWX 2.05,2013-03-07 16:10:00,
2013-03-07 11:20:00,57.2,21.7,30.21,SW,218,2.0,4.9,25,0.00,,,-99.99,FreeWX 2.05,2013-03-07 16:20:00,
2013-03-07 11:30:00,57.7,22.1,30.21,SW,230,2.0,4.5,25,0.00,,,-99.99,FreeWX 2.05,2013-03-07 16:30:00,
2013-03-07 11:40:00,58.3,21.7,30.21,SSW,213,2.0,5.4,24,0.00,,,-99.99,FreeWX 2.05,2013-03-07 16:40:00,
2013-03-07 11:50:00,58.8,22.1,30.21,SSW,195,1.0,4.0,24,0.00,,,-99.99,FreeWX 2.05,2013-03-07 16:50:00,
2013-03-07 12:00:00,60.1,23.2,30.21,SE,141,1.0,4.5,24,0.00,,,-99.99,FreeWX 2.05,2013-03-07 17:00:00,
2013-03-07 12:10:00,61.2,24.1,30.21,South,171,1.0,4.5,24,0.00,,,-99.99,FreeWX 2.05,2013-03-07 17:10:00,
2013-03-07 12:20:00,61.5,24.4,30.21,South,181,1.0,4.5,24,0.00,,,-99.99,FreeWX 2.05,2013-03-07 17:20:00,
2013-03-07 12:30:00,62.1,24.8,30.21,ESE,121,3.0,7.4,24,0.00,,,-99.99,FreeWX 2.05,2013-03-07 17:30:00,
2013-03-07 12:40:00,62.1,23.9,30.21,SE,145,3.0,9.6,23,0.00,,,-99.99,FreeWX 2.05,2013-03-07 17:40:00,
2013-03-07 12:50:00,62.1,24.8,30.21,SE,138,3.0,8.7,24,0.00,,,-99.99,FreeWX 2.05,2013-03-07 17:50:00,
2013-03-07 13:00:00,62.2,23.9,30.21,SSE,156,2.0,6.9,23,0.00,,,-99.99,FreeWX 2.05,2013-03-07 18:00:00,
2013-03-07 13:10:00,62.1,23.9,30.21,SE,125,3.0,7.4,23,0.00,,,-99.99,FreeWX 2.05,2013-03-07 18:10:00,
2013-03-07 13:20:00,62.2,23.9,30.21,SE,139,4.0,11.6,23,0.00,,,-99.99,FreeWX 2.05,2013-03-07 18:20:00,
2013-03-07 13:30:00,62.2,23.9,30.21,SSW,196,3.0,9.6,23,0.00,,,-99.99,FreeWX 2.05,2013-03-07 18:30:00,
2013-03-07 13:40:00,62.2,23.9,30.21,SSE,167,4.0,10.5,23,0.00,,,-99.99,FreeWX 2.05,2013-03-07 18:40:00,
2013-03-07 13:50:00,62.8,24.4,30.21,SSE,149,4.0,9.6,23,0.00,,,-99.99,FreeWX 2.05,2013-03-07 18:50:00,
2013-03-07 14:00:00,62.8,24.4,30.21,ESE,122,3.0,6.9,23,0.00,,,-99.99,FreeWX 2.05,2013-03-07 19:00:00,
2013-03-07 14:10:00,62.6,22.1,30.21,SSE,163,3.0,8.7,21,0.00,,,-99.99,FreeWX 2.05,2013-03-07 19:10:00,
2013-03-07 14:20:00,62.6,22.1,30.18,South,176,3.0,8.3,21,0.00,,,-99.99,FreeWX 2.05,2013-03-07 19:20:00,
2013-03-07 14:30:00,62.2,21.7,30.18,South,175,4.0,10.1,21,0.00,,,-99.99,FreeWX 2.05,2013-03-07 19:30:00,
2013-03-07 14:40:00,62.1,21.7,30.18,SSE,150,4.0,9.6,21,0.00,,,-99.99,FreeWX 2.05,2013-03-07 19:40:00,
2013-03-07 14:50:00,62.8,22.3,30.18,SSE,152,4.0,12.5,21,0.00,,,-99.99,FreeWX 2.05,2013-03-07 19:50:00,
2013-03-07 15:00:00,62.2,21.7,30.21,SSE,162,3.0,9.2,21,0.00,,,-99.99,FreeWX 2.05,2013-03-07 20:00:00,
2013-03-07 15:10:00,62.2,21.7,30.21,South,186,3.0,10.1,21,0.00,,,-99.99,FreeWX 2.05,2013-03-07 20:10:00,
2013-03-07 15:20:00,61.7,21.4,30.18,South,187,3.0,9.2,21,0.00,,,-99.99,FreeWX 2.05,2013-03-07 20:20:00,
2013-03-07 15:30:00,61.7,23.5,30.18,SSE,156,4.0,8.7,23,0.00,,,-99.99,FreeWX 2.05,2013-03-07 20:30:00,
2013-03-07 15:40:00,61.7,24.6,30.18,South,184,3.0,8.3,24,0.00,,,-99.99,FreeWX 2.05,2013-03-07 20:40:00,
2013-03-07 15:50:00,60.1,23.2,30.21,SSW,193,3.0,9.2,24,0.00,,,-99.99,FreeWX 2.05,2013-03-07 20:50:00,
2013-03-07 16:00:00,59.7,22.8,30.21,SW,215,2.0,8.3,24,0.00,,,-99.99,FreeWX 2.05,2013-03-07 21:00:00,
2013-03-07 16:10:00,59.2,23.4,30.21,SSW,200,3.0,8.3,25,0.00,,,-99.99,FreeWX 2.05,2013-03-07 21:10:00,
2013-03-07 16:20:00,59.0,23.2,30.18,South,180,3.0,8.7,25,0.00,,,-99.99,FreeWX 2.05,2013-03-07 21:20:00,
2013-03-07 16:30:00,59.4,23.5,30.18,SSE,164,3.0,8.3,25,0.00,,,-99.99,FreeWX 2.05,2013-03-07 21:30:00,
2013-03-07 16:51:00,59.2,23.4,30.18,South,191,2.0,8.3,25,0.00,,,-99.99,FreeWX 2.05,2013-03-07 21:51:00,
2013-03-07 17:01:00,58.8,23.0,30.18,South,172,3.0,7.8,25,0.00,,,-99.99,FreeWX 2.05,2013-03-07 22:01:00,
2013-03-07 17:11:00,58.1,23.4,30.18,SSE,163,3.0,8.7,26,0.00,,,-99.99,FreeWX 2.05,2013-03-07 22:11:00,
2013-03-07 17:21:00,57.6,23.9,30.18,South,183,3.0,7.4,27,0.00,,,-99.99,FreeWX 2.05,2013-03-07 22:21:00,
2013-03-07 17:31:00,57.6,23.9,30.18,SSE,161,2.0,6.9,27,0.00,,,-99.99,FreeWX 2.05,2013-03-07 22:31:00,
2013-03-07 17:41:00,57.4,24.6,30.18,SSE,150,2.0,6.9,28,0.00,,,-99.99,FreeWX 2.05,2013-03-07 22:41:00,
2013-03-07 17:51:00,57.0,24.3,30.18,SE,144,3.0,8.3,28,0.00,,,-99.99,FreeWX 2.05,2013-03-07 22:51:00,
2013-03-07 18:01:00,56.8,24.1,30.18,SE,127,3.0,8.3,28,0.00,,,-99.99,FreeWX 2.05,2013-03-07 23:01:00,
2013-03-07 18:11:00,56.7,24.8,30.18,ESE,112,2.0,6.9,29,0.00,,,-99.99,FreeWX 2.05,2013-03-07 23:11:00,
2013-03-07 18:21:00,56.5,24.6,30.18,SE,144,2.0,6.3,29,0.00,,,-99.99,FreeWX 2.05,2013-03-07 23:21:00,
2013-03-07 18:31:00,56.1,25.2,30.21,SE,130,2.0,6.3,30,0.00,,,-99.99,FreeWX 2.05,2013-03-07 23:31:00,
2013-03-07 18:41:00,55.9,25.0,30.21,SE,137,1.0,7.8,30,0.00,,,-99.99,FreeWX 2.05,2013-03-07 23:41:00,
2013-03-07 18:51:00,55.6,25.5,30.21,SE,146,1.0,5.8,31,0.00,,,-99.99,FreeWX 2.05,2013-03-07 23:51:00,
2013-03-07 19:01:00,55.4,26.1,30.21,North,-999,0.0,4.9,32,0.00,,,-99.99,FreeWX 2.05,2013-03-08 00:01:00,
2013-03-07 19:11:00,54.9,26.2,30.21,North,-999,0.0,3.6,33,0.00,,,-99.99,FreeWX 2.05,2013-03-08 00:11:00,
2013-03-07 19:21:00,54.7,27.0,30.21,North,-999,0.0,4.5,34,0.00,,,-99.99,FreeWX 2.05,2013-03-08 00:21:00,
2013-03-07 19:31:00,54.7,27.5,30.21,North,-999,0.0,3.1,35,0.00,,,-99.99,FreeWX 2.05,2013-03-08 00:31:00,
2013-03-07 19:41:00,54.5,27.5,30.21,North,-999,0.0,4.9,35,0.00,,,-99.99,FreeWX 2.05,2013-03-08 00:41:00,
2013-03-07 19:51:00,54.5,28.0,30.21,North,-999,0.0,4.9,36,0.00,,,-99.99,FreeWX 2.05,2013-03-08 00:51:00,
2013-03-07 20:01:00,54.5,28.0,30.21,SE,145,1.0,5.4,36,0.00,,,-99.99,FreeWX 2.05,2013-03-08 01:01:00,
2013-03-07 20:11:00,54.5,28.0,30.21,SSE,151,1.0,5.8,36,0.00,,,-99.99,FreeWX 2.05,2013-03-08 01:11:00,
2013-03-07 20:21:00,54.5,28.0,30.21,North,-999,0.0,4.9,36,0.00,,,-99.99,FreeWX 2.05,2013-03-08 01:21:00,
2013-03-07 20:31:00,54.3,27.9,30.21,North,-999,0.0,3.1,36,0.00,,,-99.99,FreeWX 2.05,2013-03-08 01:31:00,
2013-03-07 20:41:00,54.1,28.4,30.21,North,-999,0.0,3.6,37,0.00,,,-99.99,FreeWX 2.05,2013-03-08 01:41:00,
2013-03-07 20:51:00,54.0,28.2,30.21,North,-999,0.0,3.6,37,0.00,,,-99.99,FreeWX 2.05,2013-03-08 01:51:00,
2013-03-07 21:01:00,53.8,28.0,30.21,North,-999,0.0,3.1,37,0.00,,,-99.99,FreeWX 2.05,2013-03-08 02:01:00,
2013-03-07 21:21:00,53.4,28.4,30.21,North,-999,0.0,0.0,38,0.00,,,-99.99,FreeWX 2.05,2013-03-08 02:21:00,
2013-03-07 21:31:00,53.2,28.2,30.21,North,-999,0.0,0.0,38,0.00,,,-99.99,FreeWX 2.05,2013-03-08 02:31:00,
2013-03-07 21:41:00,52.9,28.0,30.21,North,-999,0.0,0.0,38,0.00,,,-99.99,FreeWX 2.05,2013-03-08 02:41:00,
2013-03-07 21:51:00,52.3,27.5,30.21,North,-999,0.0,0.0,38,0.00,,,-99.99,FreeWX 2.05,2013-03-08 02:51:00,
2013-03-07 22:01:00,51.6,27.5,30.21,North,-999,0.0,0.0,39,0.00,,,-99.99,FreeWX 2.05,2013-03-08 03:01:00,
2013-03-07 22:11:00,51.3,27.1,30.21,North,-999,0.0,0.0,39,0.00,,,-99.99,FreeWX 2.05,2013-03-08 03:11:00,
2013-03-07 22:21:00,50.9,26.8,30.21,North,-999,0.0,0.0,39,0.00,,,-99.99,FreeWX 2.05,2013-03-08 03:21:00,
2013-03-07 22:31:00,50.7,27.3,30.21,North,-999,0.0,0.0,40,0.00,,,-99.99,FreeWX 2.05,2013-03-08 03:31:00,
2013-03-07 22:41:00,50.4,27.0,30.21,North,-999,0.0,0.0,40,0.00,,,-99.99,FreeWX 2.05,2013-03-08 03:41:00,
2013-03-07 22:51:00,50.0,26.6,30.21,North,-999,0.0,0.0,40,0.00,,,-99.99,FreeWX 2.05,2013-03-08 03:51:00,
2013-03-07 23:01:00,49.8,27.1,30.21,North,-999,0.0,0.0,41,0.00,,,-99.99,FreeWX 2.05,2013-03-08 04:01:00,
2013-03-07 23:11:00,49.3,26.6,30.21,North,-999,0.0,0.0,41,0.00,,,-99.99,FreeWX 2.05,2013-03-08 04:11:00,
2013-03-07 23:21:00,48.9,26.8,30.21,North,-999,0.0,0.0,42,0.00,,,-99.99,FreeWX 2.05,2013-03-08 04:21:00,
2013-03-07 23:31:00,48.7,26.6,30.21,North,-999,0.0,0.0,42,0.00,,,-99.99,FreeWX 2.05,2013-03-08 04:31:00,
2013-03-07 23:41:00,48.6,27.1,30.21,North,-999,0.0,0.0,43,0.00,,,-99.99,FreeWX 2.05,2013-03-08 04:41:00,
2013-03-07 23:52:00,48.4,27.0,30.21,North,-999,0.0,0.0,43,0.00,,,-99.99,FreeWX 2.05,2013-03-08 04:52:00,